Flag for Slovakia Weather past 2 weeks in Prievidza, Slovakia

Now
64 °F

Overcast.


Feels Like: 64 °F
Forecast: 45 / 59 °F
Wind: 8 mph from North

Location: Prievidza

Current Time: May 26, 2015 at 4:36:15 PM

Latest Report: May 26, 2015 at 4:00 PM


Visibility: 16 mi

Pressure: 29.77 "Hg

Humidity: 62%

Dew point: 51 °F

Location of PrievidzaLocation

Historic Weather in Prievidza — Graph

°F

Prievidza temperature yesterday

Maximum temperature yesterday: 67 °F (at 12:00 PM)
Minimum temperature yesterday: 48 °F (at 5:00 AM)
Average temperature yesterday: 59 °F

Past Weeks' High & Low Weather Summary

 TemperatureHumidityPressure
High80 °F (May 19, 3:00 PM)95% (May 21, 12:00 AM)30.38 "Hg (May 21, 12:00 AM)
Low38 °F (May 15, 5:00 AM)24% (May 16, 5:00 PM)29.71 "Hg (May 19, 6:00 PM)
Average59 °F70%29.98 "Hg
* Reported May 11 3:00 PM — May 26 3:00 PM, Prievidza, Weather by CustomWeather, © 2015

Note: Actual official high and low records may vary slightly from our data, if they occured in-between our weather recording intervals... More about our weather records

Advertising

Prievidza weather history for previous 24 hours

 ConditionsComfort  
Time TempWeatherWind HumidityBarometerVisibility
3:00 PM
Tue, May 26
65 °FMild.7 mph66%29.76 "HgN/A
2:00 PM65 °FOvercast.8 mph66%29.75 "Hg19 mi
1:00 PM63 °FLight rain. Overcast.6 mph72%29.75 "Hg22 mi
12:00 PM62 °FOvercast.6 mph75%29.75 "Hg19 mi
11:00 AM64 °FPartly sunny.5 mph69%29.74 "Hg22 mi
10:00 AM63 °FOvercast.N/A84%29.74 "Hg12 mi
9:00 AM58 °FLight rain. Low clouds.N/A92%29.75 "Hg11 mi
8:00 AM58 °FLight rain. Low clouds.N/A91%29.75 "Hg9 mi
7:00 AM57 °FLight rain. Cloudy.1 mph94%29.74 "Hg7 mi
5:00 AM56 °FRain showers. Cloudy.N/A94%29.74 "Hg6 mi
4:00 AM56 °FLight rain. Overcast.2 mph94%29.73 "Hg6 mi
3:00 AM56 °FLight rain. Overcast.N/A94%29.74 "Hg4 mi
2:00 AM57 °FLight rain. Overcast.No wind92%29.74 "Hg5 mi
1:00 AM57 °FRain. Overcast.2 mph90%29.75 "Hg4 mi
12:00 AM58 °FLight rain. Overcast.2 mph86%29.75 "Hg9 mi
11:00 PM
Mon, May 25
58 °FCool.2 mph85%29.76 "Hg14 mi
10:00 PM59 °FOvercast.N/A83%29.78 "Hg16 mi
9:00 PM60 °FOvercast.N/A82%29.77 "Hg19 mi
8:00 PM61 °FPartly sunny.2 mph77%29.77 "Hg25 mi
7:00 PM63 °FOvercast.2 mph73%29.77 "Hg31 mi
6:00 PM64 °FOvercast.3 mph73%29.76 "Hg28 mi
5:00 PM65 °FOvercast.2 mph70%29.77 "Hg28 mi
4:00 PM64 °FOvercast.5 mph70%29.78 "Hg25 mi
Weather by CustomWeather, © 2015

See weather overviewHow to use our weather pages